• MPC Preparation (Info)

  • MPEC 2016-O156: 2014 OM394

    The following Minor Planet Electronic Circular may be linked-to from your own Web pages, but must not otherwise be redistributed electronically.

    A form allowing access to any MPEC is at the bottom of this page.


    Read MPEC 2016-O155 Read MPEC 2016-O157


    M.P.E.C. 2016-O156                               Issued 2016 July 17, 08:50 UT
    
         The Minor Planet Electronic Circulars contain information on unusual
             minor planets and routine data on comets.  They are published
        on behalf of Division F of the International Astronomical Union by the
              Minor Planet Center, Smithsonian Astrophysical Observatory,
                              Cambridge, MA 02138, U.S.A.
    
                 Prepared using the Tamkin Foundation Computer Network
    
                                  MPC@CFA.HARVARD.EDU
                URL https://www.minorplanetcenter.net/    ISSN 1523-6714
    
                                      2014 OM394
    
    Observations:
         K14Od4M  C2010 09 16.49056 23 41 54.722-03 56 29.77         22.6 wLEO156F51
         K14Od4M  C2010 09 16.50200 23 41 54.685-03 56 30.13         22.7 wLEO156F51
         K14Od4M  C2010 09 16.51354 23 41 54.647-03 56 30.41         22.5 wLEO156F51
         K14Od4M  C2010 09 16.52503 23 41 54.604-03 56 30.63         22.6 wLEO156F51
         K14Od4M  C2013 08 14.51080 23 56 10.542-02 17 31.83         22.8 wLEO156F51
         K14Od4M  C2013 08 14.52487 23 56 10.507-02 17 32.19         22.6 wLEO156F51
         K14Od4M  C2013 08 14.53890 23 56 10.465-02 17 32.41         22.7 wLEO156F51
         K14Od4M  C2013 08 14.55314 23 56 10.414-02 17 32.68         22.7 wLEO156F51
         K14Od4M* C2014 07 31.55277 00 00 49.945-01 44 47.01         22.8 wLEO156F51
         K14Od4M  C2014 07 31.56475 00 00 49.915-01 44 47.45         22.8 wLEO156F51
         K14Od4M  C2014 07 31.57675 00 00 49.890-01 44 47.58         22.6 wLEO156F51
         K14Od4M  C2014 08 03.52864 00 00 43.072-01 45 36.43         22.8 wLEO156F51
         K14Od4M  C2014 08 03.55127 00 00 43.022-01 45 36.74         23.0 wLEO156F51
         K14Od4M  C2014 08 03.56258 00 00 42.982-01 45 36.91         22.8 wLEO156F51
         K14Od4M  C2014 08 20.48185 23 59 54.275-01 51 13.95         22.4 wLEO156F51
         K14Od4M  C2014 08 20.50618 23 59 54.166-01 51 14.59         22.7 wLEO156F51
         K14Od4M  C2014 08 20.51837 23 59 54.135-01 51 14.88         22.8 wLEO156F51
    
    Observer details:
    F51 Pan-STARRS 1, Haleakala.  Observers B. Gibson, T. Goggia, N. Primak,
        A. Schultz, M. Willman.  Measurers K. Chambers, S. Chastel, Y.-T. Chen,
        L. Denneau, H. Flewelling, M. Holman, M. Huber, R. Jedicke, M. Lackner,
        E. Lilly, H.-W. Lin, E. Magnier, M. Micheli, M. Payne, P. Veres,
        R. Wainscoat, C. Waters, R. Weryk.  1.8-m Ritchey-Chretien + CCD.
    
    Orbital elements:
    2014 OM394
    Epoch 2016 July 31.0 TT = JDT 2457600.5                 MPC
    M 143.72156              (2000.0)            P               Q
    n   0.00339942     Peri.  168.82330     -0.84868264     +0.52814900
    a  43.8059593      Node    43.09578     -0.48838766     -0.76207516
    e   0.0804042      Incl.    2.36730     -0.20301542     -0.37456653
    P 290              H    5.8           G   0.15           U   3
    Residuals in seconds of arc
    100916 F51  0.2-  0.0     130814 F51  0.1+  0.0     140803 F51  0.2+  0.0
    100916 F51  0.1-  0.0     130814 F51  0.0   0.0     140803 F51  0.0   0.0
    100916 F51  0.1+  0.0     140731 F51  0.1-  0.1+    140820 F51  0.2+  0.2+
    100916 F51  0.2+  0.1+    140731 F51  0.1-  0.1-    140820 F51  0.2-  0.1+
    130814 F51  0.1-  0.1-    140731 F51  0.1-  0.1-    140820 F51  0.1-  0.1+
    130814 F51  0.1+  0.1-    140803 F51  0.1+  0.1-
    
    Ephemeris:
    2014 OM394               a,e,i = 43.81, 0.08, 2                  q = 40.284
    Date    TT    R. A. (2000) Decl.     Delta      r     Elong.  Phase     V
    2016 06 17    00 09 10.7 -00 44 47  46.8223 46.7307    84.2     1.2    22.7
    ...
    2016 07 02    00 09 19.9 -00 44 17  46.5717 46.7324    98.5     1.2    22.7
    ...
    2016 07 10    00 09 17.7 -00 44 46  46.4409 46.7332   106.1     1.2    22.7
    ...
    2016 07 16    00 09 12.8 -00 45 28  46.3460 46.7339   111.9     1.2    22.6
    2016 07 17    00 09 11.8 -00 45 37  46.3306 46.7340   112.8     1.1    22.6
    2016 07 18    00 09 10.6 -00 45 46  46.3152 46.7341   113.8     1.1    22.6
    ...
    2016 07 24    00 09 02.3 -00 46 50  46.2257 46.7347   119.5     1.1    22.6
    ...
    2016 08 01    00 08 47.4 -00 48 40  46.1144 46.7356   127.2     1.0    22.6
    ...
    2016 08 16    00 08 08.5 -00 53 11  45.9374 46.7372   141.8     0.8    22.6
    
    A. U. Tomatic                (C) Copyright 2016 MPC           M.P.E.C. 2016-O156
    

    Read MPEC 2016-O155 Read MPEC 2016-O157


    MPEC number:

    Enter an MPEC number in one of the following forms:

    • 1997-B01 (the full form)
    • J97B01 (the packed version of the full form)
    • B01 (the abbreviated form)